Terug naar catalogus

BREEZE-M DEB

TANK

ActiefHEO
NORAD 28116·DEBRIS·🇷🇺 Russia

Gelanceerd Dec 10, 2003 vanaf Baikonur Cosmodrome

Loading…

Volgende Passages (komende 24 uur)

TLE

VersSource: Space-Track

Epoch: Sep 14, 2026, 08:54 UTC

1 28116U 03056E   26257.37143808  .00000213  00000-0  29380-3 0  9999
2 28116  52.9767  39.8466 5616751  70.4880 340.1161  4.51121044362379

Volg BREEZE-M DEB in realtime met AllMySat

Download on the App Store